DW7875 Weather Reports


Display with metric or nautical units.
time (UTC)temp
F
wind
direction
speed
MPH
gust
MPH
rain 1hr
in
rain 24hr
in
rain mn
in
humidity
%
barometer
mb
20260506171602 67 86 3.0 10.0 0.00 0.04 0.04 64 1008.8
20260506170057 66 246 2.0 8.0 0.00 0.04 0.04 66 1008.9
20260506164555 65 210 2.0 8.0 0.01 0.04 0.04 67 1009.1
20260506163055 65 166 4.0 10.0 0.01 0.04 0.04 68 1009.3
20260506161556 64 195 1.0 5.0 0.02 0.04 0.04 72 1009.3
20260506154547 64 153 3.0 11.0 0.01 0.03 0.03 68 1009.7
20260506153046 64 174 2.0 7.0 0.02 0.03 0.03 70 1010.1
20260506151545 64 218 1.0 9.0 0.01 0.02 0.02 70 1010.3
20260506150043 63 213 0.0 7.0 0.02 0.02 0.02 69 1010.3
20260506144541 63 169 1.0 7.0 0.02 0.02 0.02 67 1010.5
20260506143039 64 217 3.0 7.0 0.01 0.01 0.01 65 1010.4
20260506141537 64 226 3.0 7.0 0.00 0.00 0.00 63 1010.4
20260506140042 66 154 2.0 6.0 0.00 0.00 0.00 60 1010.5
20260506134606 66 235 1.0 4.0 0.00 0.00 0.00 57 1010.5
20260506133034 66 227 3.0 10.0 0.00 0.00 0.00 56 1010.6
20260506131533 66 247 1.0 8.0 0.00 0.00 0.00 56 1010.3
20260506130033 66 183 2.0 8.0 0.00 0.00 0.00 56 1010.3
20260506124532 66 179 1.0 7.0 0.00 0.00 0.00 56 1010.2
20260506123033 66 225 2.0 7.0 0.00 0.00 0.00 56 1010.3
20260506121531 66 212 2.0 9.0 0.00 0.00 0.00 56 1010.4
20260506120030 66 136 2.0 9.0 0.00 0.00 0.00 56 1010.2
20260506114535 66 172 3.0 10.0 0.00 0.00 0.00 57 1010.2
20260506113033 65 205 2.0 12.0 0.00 0.00 0.00 58 1010.1
20260506111528 65 210 2.0 9.0 0.00 0.00 0.00 59 1010.0
20260506110029 65 220 3.0 9.0 0.00 0.00 0.00 59 1010.0
20260506104526 64 210 3.0 8.0 0.00 0.00 0.00 60 1010.0
20260506103028 65 200 3.0 10.0 0.00 0.00 0.00 60 1009.9
20260506101524 64 215 2.0 8.0 0.00 0.00 0.00 60 1009.8
20260506100031 65 225 3.0 9.0 0.00 0.00 0.00 60 1009.8
20260506094519 65 172 2.0 8.0 0.00 0.00 0.00 59 1010.1
20260506093019 65 207 3.0 8.0 0.00 0.00 0.00 60 1010.0
20260506091519 65 209 2.0 8.0 0.00 0.00 0.00 60 1009.9
20260506090017 65 216 3.0 10.0 0.00 0.00 0.00 59 1010.0
20260506084516 65 229 2.0 8.0 0.00 0.00 0.00 59 1009.9
20260506083015 65 236 1.0 11.0 0.00 0.00 0.00 59 1010.1
20260506081520 66 206 2.0 9.0 0.00 0.00 0.00 58 1010.0
20260506080112 66 221 1.0 7.0 0.00 0.00 0.00 58 1009.9
20260506073011 66 174 1.0 6.0 0.00 0.00 0.00 57 1010.3
20260506071509 67 231 2.0 9.0 0.00 0.00 0.00 56 1010.3
20260506061558 69 131 2.0 7.0 0.00 0.00 0.00 53 1010.3
20260506044543 71 140 2.0 8.0 0.00 0.00 0.00 47 1010.9
20260506043042 71 193 2.0 12.0 0.00 0.00 0.00 46 1010.9
20260506041540 71 235 1.0 5.0 0.00 0.00 0.00 45 1010.9
20260506040037 71 217 2.0 7.0 0.00 0.00 0.00 44 1010.9
20260506034537 71 191 2.0 10.0 0.00 0.00 0.00 43 1010.8
20260506033036 72 190 2.0 6.0 0.00 0.00 0.00 43 1010.7
20260506031539 72 196 2.0 10.0 0.00 0.00 0.00 42 1010.6
20260506030034 72 192 3.0 11.0 0.00 0.00 0.00 41 1010.6
20260506024539 72 217 2.0 10.0 0.00 0.00 0.00 40 1010.8
20260506023032 73 197 2.0 8.0 0.00 0.00 0.00 40 1010.9
20260506021531 73 152 1.0 10.0 0.00 0.00 0.00 39 1010.8
20260506020029 73 185 2.0 16.0 0.00 0.00 0.00 37 1010.8
20260506014530 74 165 2.0 8.0 0.00 0.00 0.00 37 1010.5
20260506013031 74 212 1.0 6.0 0.00 0.00 0.00 36 1010.4
20260506011557 74 216 2.0 10.0 0.00 0.00 0.00 35 1010.4
20260506010027 74 219 1.0 6.0 0.00 0.00 0.00 34 1010.2
20260506004527 75 192 2.0 6.0 0.00 0.00 0.00 33 1010.0
20260506003027 75 250 1.0 6.0 0.00 0.00 0.00 33 1009.8
20260506001526 75 203 1.0 4.0 0.00 0.00 0.00 33 1009.7
20260506000044 77 200 0.0 2.0 0.00 0.00 0.00 30 1009.5
20260505234538 78 203 0.0 3.0 0.00 0.00 0.00 28 1009.4
20260505233027 79 195 1.0 6.0 0.00 0.00 0.00 23 1009.4
20260505231525 79 200 1.0 6.0 0.00 0.00 0.00 23 1009.3
20260505230046 80 230 2.0 8.0 0.00 0.00 0.00 23 1009.2
20260505224535 81 246 2.0 8.0 0.00 0.00 0.00 22 1009.1
20260505223024 81 238 3.0 9.0 0.00 0.00 0.00 21 1009.2
20260505221522 81 170 2.0 9.0 0.00 0.00 0.00 22 1009.2
20260505220020 82 86 4.0 9.0 0.00 0.00 0.00 21 1009.1
20260505214523 82 236 3.0 7.0 0.00 0.00 0.00 22 1009.1
20260505213023 82 225 2.0 7.0 0.00 0.00 0.00 23 1009.0
20260505211526 83 239 3.0 12.0 0.00 0.00 0.00 22 1008.9
20260505210017 84 237 3.0 9.0 0.00 0.00 0.00 25 1008.8
20260505204516 85 118 2.0 9.0 0.00 0.00 0.00 23 1008.7
20260505203016 85 229 2.0 11.0 0.00 0.00 0.00 23 1008.8
20260505201514 85 204 5.0 13.0 0.00 0.00 0.00 21 1008.9
20260505200011 86 245 4.0 9.0 0.00 0.00 0.00 23 1009.1
20260505194512 85 151 2.0 8.0 0.00 0.00 0.00 25 1009.2
20260505193010 82 130 3.0 10.0 0.00 0.00 0.00 28 1009.6
20260505191507 82 134 1.0 4.0 0.00 0.00 0.00 40 1010.0
20260505190005 85 157 2.0 14.0 0.00 0.00 0.00 27 1010.1
20260505184505 85 122 2.0 12.0 0.00 0.00 0.00 28 1010.2
20260505183101 85 110 4.0 11.0 0.00 0.00 0.00 26 1010.5
20260505181558 85 169 2.0 10.0 0.00 0.00 0.00 27 1010.7
20260505180059 85 237 3.0 9.0 0.00 0.00 0.00 29 1010.7
20260505174555 85 267 3.0 13.0 0.00 0.00 0.00 28 1010.7
20260505173111 84 220 2.0 10.0 0.00 0.00 0.00 31 1010.9